�������l�o���
Date,Time,MP-1(��Sv/h),MP-2(��Sv/h),MP-3(��Sv/h),MP-4(��Sv/h),MP-5(��Sv/h),MP-6(��Sv/h),MP-7(��Sv/h),����,����(m/s),���J
2022/04/17,00:00,0.152,0.138,0.220,0.213,0.219,0.121,0.077,-,CALM,��
2022/04/17,00:10,0.153,0.139,0.220,0.214,0.218,0.120,0.077,��,0.7,��
2022/04/17,00:20,0.152,0.139,0.221,0.214,0.218,0.121,0.076,�쓌,0.5,��
2022/04/17,00:30,0.153,0.139,0.220,0.213,0.218,0.120,0.077,-,CALM,��
2022/04/17,00:40,0.152,0.139,0.221,0.213,0.218,0.121,0.077,��,0.7,��
2022/04/17,00:50,0.153,0.139,0.221,0.213,0.218,0.121,0.077,��쓌,0.8,��
2022/04/17,01:00,0.153,0.138,0.221,0.213,0.218,0.121,0.077,��,0.7,��
2022/04/17,01:10,0.153,0.138,0.220,0.213,0.218,0.121,0.078,��,0.8,��
2022/04/17,01:20,0.153,0.139,0.222,0.213,0.218,0.120,0.078,-,CALM,��
2022/04/17,01:30,0.152,0.139,0.221,0.212,0.218,0.121,0.077,���쐼,1.0,��
2022/04/17,01:40,0.152,0.138,0.221,0.213,0.218,0.121,0.077,��,1.3,��
2022/04/17,01:50,0.152,0.139,0.221,0.215,0.217,0.121,0.077,���쐼,1.0,��
2022/04/17,02:00,0.154,0.139,0.221,0.212,0.218,0.120,0.077,���쐼,1.6,��
2022/04/17,02:10,0.152,0.140,0.222,0.213,0.218,0.120,0.078,���쐼,1.9,��
2022/04/17,02:20,0.152,0.139,0.220,0.214,0.219,0.121,0.078,���쐼,2.1,��
2022/04/17,02:30,0.152,0.139,0.221,0.213,0.218,0.120,0.078,�쐼,2.7,��
2022/04/17,02:40,0.153,0.139,0.221,0.213,0.218,0.120,0.078,���쐼,2.2,��
2022/04/17,02:50,0.153,0.139,0.221,0.213,0.218,0.121,0.077,���쐼,1.6,��
2022/04/17,03:00,0.153,0.139,0.220,0.213,0.218,0.120,0.077,��,1.6,��
2022/04/17,03:10,0.152,0.139,0.219,0.214,0.218,0.120,0.077,��,1.0,��
2022/04/17,03:20,0.153,0.139,0.221,0.213,0.218,0.120,0.077,��,2.1,��
2022/04/17,03:30,0.153,0.138,0.221,0.214,0.217,0.120,0.078,���k��,1.3,��
2022/04/17,03:40,0.152,0.139,0.221,0.212,0.218,0.120,0.079,-,CALM,��
2022/04/17,03:50,0.153,0.139,0.220,0.213,0.217,0.120,0.078,-,CALM,��
2022/04/17,04:00,0.153,0.137,0.220,0.213,0.219,0.121,0.077,-,CALM,��
2022/04/17,04:10,0.154,0.139,0.220,0.213,0.218,0.120,0.077,-,CALM,��
2022/04/17,04:20,0.153,0.139,0.221,0.213,0.218,0.120,0.077,-,CALM,��
2022/04/17,04:30,0.153,0.139,0.222,0.212,0.218,0.121,0.077,-,CALM,��
2022/04/17,04:40,0.152,0.138,0.221,0.212,0.218,0.121,0.078,�k��,0.5,��
2022/04/17,04:50,0.153,0.138,0.221,0.213,0.218,0.120,0.077,�k,0.5,��
2022/04/17,05:00,0.153,0.139,0.220,0.213,0.218,0.120,0.077,���k��,0.5,��
2022/04/17,05:10,0.153,0.139,0.220,0.213,0.219,0.120,0.077,-,CALM,��
2022/04/17,05:20,0.152,0.139,0.220,0.212,0.218,0.120,0.077,-,CALM,��
2022/04/17,05:30,0.153,0.138,0.221,0.212,0.218,0.120,0.077,�쐼,0.7,��
2022/04/17,05:40,0.152,0.138,0.219,0.213,0.217,0.120,0.077,-,CALM,��
2022/04/17,05:50,0.154,0.137,0.221,0.211,0.217,0.120,0.077,��쓌,0.5,��
2022/04/17,06:00,0.152,0.139,0.221,0.212,0.218,0.121,0.077,���쓌,0.8,��
2022/04/17,06:10,0.153,0.137,0.221,0.213,0.217,0.120,0.077,-,CALM,��
2022/04/17,06:20,0.153,0.138,0.221,0.213,0.218,0.121,0.078,-,CALM,��
2022/04/17,06:30,0.152,0.139,0.219,0.212,0.218,0.120,0.077,-,CALM,��
2022/04/17,06:40,0.153,0.139,0.221,0.213,0.219,0.121,0.076,��쐼,1.0,��
2022/04/17,06:50,0.152,0.138,0.221,0.213,0.218,0.120,0.077,��쐼,1.8,��
2022/04/17,07:00,0.153,0.139,0.221,0.213,0.217,0.121,0.077,��쐼,2.5,��
2022/04/17,07:10,0.153,0.139,0.219,0.212,0.219,0.120,0.077,��쐼,3.2,��
2022/04/17,07:20,0.153,0.138,0.219,0.212,0.218,0.121,0.078,��쐼,3.2,��
2022/04/17,07:30,0.153,0.138,0.220,0.213,0.219,0.120,0.077,��쐼,2.2,��
2022/04/17,07:40,0.153,0.139,0.218,0.212,0.218,0.121,0.077,��쐼,1.9,��
2022/04/17,07:50,0.153,0.139,0.220,0.212,0.218,0.120,0.077,��,2.5,��
2022/04/17,08:00,0.153,0.138,0.218,0.213,0.217,0.120,0.077,��,2.7,��
2022/04/17,08:10,0.153,0.138,0.220,0.211,0.219,0.120,0.077,��,2.1,��
2022/04/17,08:20,0.153,0.138,0.217,0.213,0.218,0.121,0.077,��쓌,2.4,��
2022/04/17,08:30,0.152,0.138,0.220,0.211,0.218,0.120,0.076,��쓌,3.2,��
2022/04/17,08:40,0.153,0.138,0.218,0.213,0.217,0.121,0.077,��쓌,3.5,��
2022/04/17,08:50,0.151,0.138,0.219,0.211,0.218,0.120,0.076,��쓌,3.3,��
2022/04/17,09:00,0.153,0.138,0.219,0.213,0.217,0.120,0.077,�쓌,3.3,��
2022/04/17,09:10,0.151,0.138,0.220,0.212,0.218,0.119,0.077,��쓌,3.8,��
2022/04/17,09:20,0.152,0.138,0.220,0.212,0.217,0.120,0.076,��쓌,3.8,��
2022/04/17,09:30,0.153,0.138,0.219,0.211,0.218,0.120,0.078,-,CALM,��
2022/04/17,09:40,0.152,0.137,0.221,0.213,0.217,0.120,0.076,�쓌,4.9,��
2022/04/17,09:50,0.153,0.138,0.219,0.213,0.219,0.121,0.077,��쓌,5.2,��
2022/04/17,10:00,0.152,0.138,0.220,0.212,0.217,0.121,0.077,��쓌,5.7,��
2022/04/17,10:10,0.153,0.139,0.219,0.213,0.219,0.120,0.076,�쓌,5.5,��
2022/04/17,10:20,0.153,0.138,0.220,0.212,0.217,0.120,0.077,��쓌,6.1,��
2022/04/17,10:30,0.151,0.138,0.221,0.214,0.219,0.121,0.077,��쓌,6.0,��
2022/04/17,10:40,0.153,0.139,0.220,0.212,0.217,0.119,0.078,��쓌,6.6,��
2022/04/17,10:50,0.152,0.138,0.221,0.214,0.217,0.120,0.077,��쓌,6.4,��
2022/04/17,11:00,0.153,0.138,0.220,0.213,0.218,0.121,0.077,��쓌,6.0,��
2022/04/17,11:10,0.152,0.139,0.221,0.215,0.217,0.121,0.077,�쓌,6.8,��
2022/04/17,11:20,0.152,0.139,0.221,0.213,0.221,0.122,0.077,�쓌,7.0,��
2022/04/17,11:30,0.154,0.138,0.221,0.215,0.217,0.121,0.077,��쓌,6.6,��
2022/04/17,11:40,0.152,0.139,0.223,0.213,0.219,0.121,0.077,��쓌,7.5,��
2022/04/17,11:50,0.153,0.139,0.220,0.213,0.219,0.121,0.076,��쓌,6.0,��
2022/04/17,12:00,0.153,0.139,0.221,0.214,0.218,0.121,0.078,��쓌,7.7,��
2022/04/17,12:10,0.151,0.139,0.222,0.214,0.221,0.120,0.077,��쓌,7.6,��
2022/04/17,12:20,0.154,0.138,0.222,0.215,0.218,0.121,0.078,��쓌,7.9,��
2022/04/17,12:30,0.153,0.139,0.221,0.213,0.221,0.121,0.077,�쓌,7.9,��
2022/04/17,12:40,0.151,0.138,0.220,0.216,0.220,0.120,0.077,��쓌,8.4,��
2022/04/17,12:50,0.153,0.140,0.221,0.213,0.218,0.121,0.078,�쓌,7.1,��
2022/04/17,13:00,0.152,0.139,0.221,0.215,0.220,0.121,0.077,��쓌,7.7,��
2022/04/17,13:10,0.151,0.140,0.223,0.214,0.217,0.121,0.077,�쓌,8.2,��
2022/04/17,13:20,0.154,0.139,0.221,0.214,0.219,0.120,0.077,��쓌,11.0,��
2022/04/17,13:30,0.152,0.140,0.221,0.214,0.219,0.121,0.077,�쓌,10.9,��
2022/04/17,13:40,0.151,0.139,0.222,0.214,0.218,0.121,0.077,�쓌,10.9,��
2022/04/17,13:50,0.153,0.138,0.221,0.216,0.220,0.121,0.078,�쓌,9.8,��
2022/04/17,14:00,0.153,0.139,0.223,0.213,0.218,0.121,0.078,��쓌,10.0,��
2022/04/17,14:10,0.154,0.139,0.220,0.215,0.221,0.121,0.077,��쓌,9.4,��
2022/04/17,14:20,0.153,0.139,0.222,0.213,0.219,0.121,0.077,��쓌,11.9,��
2022/04/17,14:30,0.151,0.139,0.221,0.216,0.219,0.121,0.077,��쓌,9.7,��
2022/04/17,14:40,0.153,0.140,0.223,0.214,0.220,0.122,0.077,��쓌,12.0,��
2022/04/17,14:50,0.152,0.139,0.222,0.216,0.218,0.121,0.077,��쓌,11.2,��
2022/04/17,15:00,0.153,0.139,0.222,0.214,0.221,0.121,0.077,��쓌,9.4,��
2022/04/17,15:10,0.154,0.139,0.223,0.216,0.218,0.122,0.077,�쓌,11.0,��
2022/04/17,15:20,0.152,0.139,0.223,0.214,0.220,0.120,0.078,��쓌,7.7,��
2022/04/17,15:30,0.154,0.139,0.222,0.216,0.220,0.121,0.078,��쓌,10.0,��
2022/04/17,15:40,0.153,0.139,0.225,0.215,0.220,0.120,0.077,��쓌,10.1,��
2022/04/17,15:50,0.154,0.139,0.224,0.217,0.221,0.121,0.078,��쓌,11.7,��
2022/04/17,16:00,0.154,0.140,0.223,0.216,0.218,0.121,0.077,��쓌,11.2,��
2022/04/17,16:10,0.154,0.140,0.223,0.215,0.220,0.122,0.077,��쓌,10.2,��
2022/04/17,16:20,0.154,0.140,0.223,0.216,0.219,0.122,0.078,��쓌,10.6,��
2022/04/17,16:30,0.153,0.140,0.223,0.216,0.221,0.122,0.077,��,11.4,��
2022/04/17,16:40,0.154,0.139,0.223,0.216,0.218,0.122,0.077,��쓌,10.9,��
2022/04/17,16:50,0.153,0.139,0.222,0.216,0.221,0.122,0.077,��쓌,11.1,��
2022/04/17,17:00,0.154,0.139,0.224,0.215,0.219,0.121,0.078,��,10.5,��
2022/04/17,17:10,0.154,0.140,0.222,0.216,0.221,0.122,0.077,��,8.9,��
2022/04/17,17:20,0.154,0.139,0.224,0.216,0.221,0.122,0.077,��,6.8,��
2022/04/17,17:30,0.154,0.140,0.223,0.215,0.222,0.122,0.077,��,6.2,��
2022/04/17,17:40,0.153,0.140,0.223,0.216,0.222,0.122,0.077,��,6.6,��
2022/04/17,17:50,0.155,0.139,0.224,0.215,0.221,0.122,0.078,��,5.9,��
2022/04/17,18:00,0.153,0.140,0.223,0.216,0.221,0.122,0.078,��,5.1,��
2022/04/17,18:10,0.154,0.139,0.222,0.216,0.221,0.121,0.077,��,6.6,��
2022/04/17,18:20,0.154,0.140,0.224,0.216,0.222,0.122,0.078,��쐼,8.0,��
2022/04/17,18:30,0.154,0.140,0.222,0.215,0.221,0.121,0.078,��쐼,8.1,��
2022/04/17,18:40,0.154,0.140,0.222,0.216,0.220,0.122,0.078,��쐼,6.9,��
2022/04/17,18:50,0.154,0.139,0.223,0.215,0.220,0.122,0.078,��쐼,6.6,��
2022/04/17,19:00,0.153,0.140,0.223,0.217,0.220,0.122,0.078,��,6.6,��
2022/04/17,19:10,0.154,0.139,0.222,0.216,0.221,0.121,0.077,��,7.4,��
2022/04/17,19:20,0.153,0.140,0.223,0.216,0.221,0.122,0.077,��,7.0,��
2022/04/17,19:30,0.153,0.140,0.224,0.217,0.221,0.122,0.078,��,6.8,��
2022/04/17,19:40,0.153,0.139,0.224,0.216,0.220,0.122,0.077,��,7.1,��
2022/04/17,19:50,0.153,0.141,0.224,0.215,0.219,0.121,0.077,��,7.6,��
2022/04/17,20:00,0.154,0.139,0.223,0.216,0.221,0.122,0.078,��,7.8,��
2022/04/17,20:10,0.154,0.139,0.223,0.217,0.221,0.121,0.077,��,7.4,��
2022/04/17,20:20,0.153,0.138,0.223,0.215,0.220,0.121,0.078,��,7.0,��
2022/04/17,20:30,0.154,0.140,0.223,0.215,0.221,0.121,0.078,��,7.2,��
2022/04/17,20:40,0.154,0.139,0.224,0.215,0.221,0.121,0.078,��,8.2,��
2022/04/17,20:50,0.154,0.140,0.224,0.216,0.220,0.121,0.078,��,7.2,��
2022/04/17,21:00,0.154,0.139,0.224,0.215,0.220,0.122,0.078,��,8.2,��
2022/04/17,21:10,0.153,0.141,0.223,0.216,0.220,0.122,0.078,��,8.5,��
2022/04/17,21:20,0.154,0.140,0.223,0.215,0.220,0.123,0.078,��,7.5,��
2022/04/17,21:30,0.154,0.139,0.223,0.215,0.220,0.121,0.077,��,7.5,��
2022/04/17,21:40,0.154,0.140,0.224,0.215,0.220,0.122,0.078,��,7.3,��
2022/04/17,21:50,0.154,0.140,0.223,0.216,0.221,0.121,0.078,��,6.8,��
2022/04/17,22:00,0.153,0.139,0.223,0.216,0.221,0.121,0.077,��,6.9,��
2022/04/17,22:10,0.154,0.139,0.224,0.216,0.220,0.122,0.078,��,6.9,��
2022/04/17,22:20,0.154,0.140,0.222,0.215,0.221,0.122,0.078,��,7.1,��
2022/04/17,22:30,0.153,0.140,0.223,0.216,0.219,0.121,0.077,��쐼,7.2,��
2022/04/17,22:40,0.155,0.140,0.224,0.215,0.221,0.123,0.078,��쐼,8.4,��
2022/04/17,22:50,0.154,0.140,0.224,0.216,0.220,0.123,0.077,��쐼,8.1,��
2022/04/17,23:00,0.153,0.140,0.223,0.217,0.221,0.122,0.078,��쐼,6.6,��
2022/04/17,23:10,0.154,0.139,0.224,0.215,0.221,0.122,0.077,��쐼,5.2,��
2022/04/17,23:20,0.153,0.140,0.223,0.215,0.219,0.122,0.077,��쐼,5.2,��
2022/04/17,23:30,0.153,0.140,0.222,0.216,0.220,0.121,0.078,��쐼,4.8,��
2022/04/17,23:40,0.153,0.140,0.224,0.215,0.221,0.123,0.078,��쐼,4.4,��
2022/04/17,23:50,0.153,0.140,0.224,0.217,0.220,0.122,0.079,�쐼,4.8,��
